Weather History for KAPA - May, 2013

Change the Weather History Date:

Monday, May 20, 2013

  Actual Average Record
Temperature  
Mean Temperature 53 °F -  
Max Temperature 64 °F 69 °F 89 °F (2005)
Min Temperature 41 °F 41 °F 28 °F (2001)
Degree Days  
Heating Degree Days 12    
Month to date heating degree days 246  
Growing Degree Days 2 (Base 50)    
Moisture  
Dew Point 40 °F    
Average Humidity 65    
Maximum Humidity 93    
Minimum Humidity 36    
Precipitation  
Precipitation 0.08 in - - ()
Month to date precipitation 1.64  
Year to date precipitation 4.60  
Sea Level Pressure  
Sea Level Pressure 29.90 in    
Wind  
Wind Speed 5 mph (East)    
Max Wind Speed 22 mph    
Max Gust Speed 32 mph    
Visibility 9 miles    
Events Rain , Thunderstorm    
Averages and records for this station are not official NWS values.
T = Trace of Precipitation, MM = Missing Value Source: NWS Daily Summary

Daily Weather History Graph

Daily Weather History Graph

Search for Another Location

Airport or City:

Trip Planner

Search our weather history database for the weather conditions in past years. The results will help you decide how hot, cold, wet, or windy it might be!

Date:

Astronomy

May. 20, 2013 Rise Set
Actual Time 5:40 AM MDT 8:11 PM MDT
Civil Twilight 5:09 AM MDT 8:42 PM MDT
Nautical Twilight 4:31 AM MDT 9:20 PM MDT
Astronomical Twilight 3:48 AM MDT 10:03 PM MDT
Moon 3:22 PM MDT (5/20) 2:35 AM MDT (5/20)
Length of Visible Light 15h 32m
Length of Day
14h 30m
Waxing Gibbous, 75% of the Moon is Illuminated
May 20
Waxing Gibbous
May 24
Full
May 31
Last Quarter
Jun 8
New
Jun 16
First Quarter

Hourly Weather History & Observations

Time (MDT) Temp. Windchill Dew Point Humidity Pressure Visibility Wind Dir Wind Speed Gust Speed Precip Events Conditions
12:53 AM 48.0 °F - 35.1 °F 61% 29.76 in 10.0 mi SSW 8.1 mph - N/A   Mostly Cloudy
2:53 AM 44.1 °F 40.8 °F 32.0 °F 63% 29.78 in 10.0 mi SE 5.8 mph - N/A   Mostly Cloudy
3:53 AM 45.0 °F 41.8 °F 33.1 °F 63% 29.79 in 10.0 mi ESE 5.8 mph - N/A   Mostly Cloudy
4:53 AM 46.9 °F - 36.0 °F 66% 29.81 in 10.0 mi East 3.5 mph - N/A   Mostly Cloudy
5:53 AM 46.0 °F 44.8 °F 39.9 °F 79% 29.84 in 10.0 mi NE 3.5 mph - N/A   Mostly Cloudy
6:44 AM 46.4 °F - 41.0 °F 81% 29.97 in 10.0 mi Calm Calm - N/A   Overcast
6:53 AM 46.9 °F - 41.0 °F 80% 29.86 in 10.0 mi Calm Calm - N/A   Overcast
7:35 AM 46.4 °F - 42.8 °F 87% 29.98 in 6.0 mi Calm Calm - 0.01 in Rain Light Rain
7:53 AM 46.0 °F - 43.0 °F 89% 29.91 in 6.0 mi Calm Calm - 0.02 in Rain Light Rain
8:39 AM 46.4 °F - 42.8 °F 87% 29.98 in 10.0 mi Calm Calm - 0.01 in Rain Light Rain
8:53 AM 46.9 °F - 44.1 °F 90% 29.90 in 10.0 mi South 4.6 mph - 0.01 in Rain Light Rain
9:53 AM 53.1 °F - 44.1 °F 71% 29.87 in 10.0 mi Variable 5.8 mph - 0.00 in   Scattered Clouds
10:53 AM 57.0 °F - 37.9 °F 49% 29.82 in 10.0 mi WSW 5.8 mph - N/A   Scattered Clouds
11:53 AM 59.0 °F - 33.1 °F 38% 29.82 in 10.0 mi NNW 5.8 mph - N/A   Mostly Cloudy
12:53 PM 61.0 °F - 34.0 °F 36% 29.81 in 10.0 mi NNW 6.9 mph 17.3 mph N/A   Mostly Cloudy
1:53 PM 59.0 °F - 37.0 °F 44% 29.86 in 10.0 mi Variable 5.8 mph - 0.00 in   Mostly Cloudy
2:53 PM 60.1 °F - 36.0 °F 41% 29.85 in 10.0 mi NW 8.1 mph - N/A   Mostly Cloudy
3:22 PM 53.6 °F - 39.2 °F 58% 29.94 in 5.0 mi East 11.5 mph 32.2 mph 0.01 in Rain , Thunderstorm Light Thunderstorms and Rain
3:53 PM 57.0 °F - 39.9 °F 53% 29.87 in 10.0 mi ENE 6.9 mph - 0.01 in Thunderstorm Thunderstorm
4:14 PM 55.4 °F - 42.8 °F 63% 29.96 in 10.0 mi NNE 15.0 mph 20.7 mph N/A Thunderstorm Thunderstorm
4:53 PM 50.0 °F - 45.0 °F 83% 29.93 in 3.0 mi North 13.8 mph 23.0 mph 0.03 in Rain , Thunderstorm Thunderstorms and Rain
5:23 PM 50.0 °F - 44.6 °F 82% 29.96 in 10.0 mi East 5.8 mph - N/A Rain Light Rain
5:53 PM 52.0 °F - 43.0 °F 71% 29.93 in 10.0 mi NE 6.9 mph - N/A   Mostly Cloudy
6:53 PM 51.1 °F - 43.0 °F 74% 29.94 in 10.0 mi East 3.5 mph - N/A   Mostly Cloudy
8:53 PM 48.9 °F - 42.1 °F 77% 29.99 in 10.0 mi SE 4.6 mph - 0.00 in   Overcast
9:53 PM 50.0 °F - 39.9 °F 68% 29.98 in 10.0 mi SE 6.9 mph - N/A   Mostly Cloudy
10:53 PM 46.0 °F 42.5 °F 39.9 °F 79% 29.99 in 10.0 mi South 6.9 mph - N/A   Scattered Clouds
11:53 PM 43.0 °F 40.3 °F 39.0 °F 86% 29.98 in 10.0 mi South 4.6 mph - N/A   Scattered Clouds